056  
SXUS52 KCHS 180112  
OSOCHS  
 
MARINE OBSERVATIONS  
NATIONAL WEATHER SERVICE CHARLESTON SC  
900 PM EDT THU AUG 17 2017  
   
..DOWNTOWN CHARLESTON AND HARBOR
 
 
 
CITY SKY/WX TMP DP RH WIND PRES REMARKS  
WATERFRONT PRK N/A N/A N/A N/A S6 29.82S  
   
..LAKE MOULTRIE
 
 
 
CITY SKY/WX TMP DP RH WIND PRES REMARKS  
PINOPOLIS N/A 82 77 83 S5 29.90F HX 91  
   
..LAKE AND SUPPLEMENTAL COASTAL OBSERVATIONS
 
 
 
STATION/POSITION TIME TEMP WIND PRES WAVE SWELL  
AIR SEA DIR/SP/G HT/PER HT/PER/DIR  
(UTC) (F) (DEG/KT/KT) (MB) (FT/S) (FT/S/D)  
FORT PULASKI 0042 85 86 230/ 6/ 9 1016.2R  
SAPELO ISLAND 0000 85 CALM 1016.0  
WINYAH BAY 2345 83 270/ 1 1015.0  
LAKE MURRAY 0020 88 230/ 3/ 4 1013.5  
ACE BASIN NERRS 2345 87 CALM 1015.0  
 
   
..C-MAN AND BUOY OBSERVATIONS
 
 
 
STATION/POSITION TIME TEMP WIND PRES WAVE SWELL  
AIR SEA DIR/SP/G HT/PER HT/PER/DIR  
(UTC) (F) (DEG/KT/KT) (MB) (FT/S) (FT/S/D)  
BUOY 41004 0050 85 85 210/ 8/ 10 1014.8F 2/ 7 2/130/ 7  
BUOY 41008 0050 86 86 210/ 10/ 12 1015.6R  
FOLLY BEACH CMAN 0100 86 210/ 13/ 14 1015.8F  
CAPERS NS BUOY 0008 84 86 220/ 10/ 14 1014.9F  
FRIPP NS BUOY 0008 87 210/ 12/ 16 1014.9R  
5E ST. MARYS GA 0100 86 N/A 1/ 9  
 
 
STATION/POSITION TIME TEMP WIND PRES WAVE SWELL  
AIR SEA DIR/SP/G HT/PER HT/PER/DIR  
(UTC) (F) (DEG/KT/KT) (MB) (FT/S) (FT/S/D)  
FRYING PAN BUOY 0050 84 85 210/ 6/ 8 1014.6F 2/ 7 2/120/ 7  
BUOY 41025 0050 83 86 180/ 8/ 10 1016.3R 2/ 7 2/ 50/ 7  
CAPE LOOKOUT NC 0100 83 170/ 6/ 7 1015.5F  
BUOY 41002 0050 81 85 250/ 14/ 19 1017.2R 2/ 5 2/100/ 7  
BUOY 41010 0050 85 86 180/ 6/ 8 1017.6R 2/ 8 2/ 90/ 8  
ST AUGUSTINE FL 0100 80 82 190/ 5/ 5 1017.1R  
 

 
 
 
CLICK HERE TO GO TO PREVIOUS BULLETINS.

The Nexlab SC Page
The Nexlab GA Page Main Text Page